sat.trackr.live / text

‹ back to catalog

STARLINK-6190

NORAD 56774 · 2023-078H

PAYLOAD ACTIVE UNKNOWN

§ Identity

Operator
Country
US
Launch date
2023-05-31
Launch site
AFWTR
Launch vehicle
Mass (kg)
RCS (m²)

Purposes: comms

External: N2YO · Heavens-Above · Gunter

§ Orbital elements

Epoch: 2026-05-25T02:58:03.169056Z

Period
96.11 min
Inclination
69.9987°
Eccentricity
0.0003521
Mean motion
14.98330745 rev/d
Perigee alt
569.6 km
Apogee alt
574.5 km
Semi-major
6,950.2 km
B*
7.2251e-6
RAAN
171.8373°
Arg perigee
268.4122°
Mean anomaly
91.6633°
Rev number
16,363

§ Raw data

STARLINK-61901 56774U 23078H   26145.12364779 -.00000007  00000+0  72251-5 0  99952 56774  69.9987 171.8373 0003521 268.4122  91.6633 14.98330745163636

JSON: /api/v1/satellites/56774 · /tle

For live sub-satellite position, see the globe view (requires WebGL).

§ Visibility from observer

Set your observer location to see the next 7 days of passes ≥ 10°. The values pass through the URL so the page stays shareable.

No JS? Fill the form by hand. The geolocation button needs JavaScript.